Home   Weather   Coventry   Past weeks

Flag for United Kingdom Past Weather in Coventry, England, United Kingdom — Yesterday and Last 2 Weeks

Now
59 °F

Partly sunny.


Feels Like: 58 °F
Forecast: 53 / 70 °F
Wind: 8 mph from Southwest

Location: Coventry Airport

Current Time: Aug 31, 2016 at 9:09:05 AM

Latest Report: Aug 31, 2016 at 8:20 AM


Visibility: N/A

Pressure: 30.09 "Hg

Humidity: 94%

Dew Point: 57 °F

Location of CoventryLocation

Past Weather in Coventry — Graph

°F

Coventry Temperature Yesterday

Maximum temperature yesterday: 75 °F (at 1:50 PM)
Minimum temperature yesterday: 57 °F (at 7:50 AM)
Average temperature yesterday: 69 °F

High & Low Weather Summary for the Past Weeks

 TemperatureHumidityPressure
High86 °F (Aug 23, 4:20 PM)100% (Aug 18, 7:20 AM)30.27 "Hg (Aug 18, 7:20 AM)
Low54 °F (Aug 17, 7:20 AM)34% (Aug 17, 4:50 PM)29.56 "Hg (Aug 20, 8:50 AM)
Average68 °F73%29.99 "Hg
* Reported Aug 16 7:20 AM — Aug 31 7:50 AM, Coventry, Weather by CustomWeather, © 2016

Note: Actual official high and low records may vary slightly from our data, if they occured in-between our weather recording intervals... More about our weather records

Advertising

Coventry Weather History for the Previous 24 Hours

Scroll right to see more
 ConditionsComfort  
Time TempWeatherWind HumidityBarometerVisibility
7:50 AM
Wed, Aug 31
57 °FPartly sunny.7 mph94%30.09 "HgN/A
7:20 AM55 °FScattered clouds.5 mph94%30.09 "HgN/A
1:20 AM57 °FClear.7 mph82%30.12 "Hg10 mi
12:50 AM57 °FClear.6 mph82%30.12 "Hg10 mi
12:20 AM61 °FClear.5 mph77%30.12 "Hg10 mi
11:50 PM
Tue, Aug 30
61 °FClear.5 mph83%30.15 "Hg10 mi
11:20 PM61 °FClear.6 mph83%30.15 "Hg10 mi
10:50 PM63 °FClear.5 mph83%30.15 "Hg10 mi
10:20 PM63 °FClear.5 mph77%30.15 "Hg10 mi
9:50 PM64 °FClear.6 mph78%30.15 "Hg10 mi
9:20 PM66 °FClear.5 mph73%30.15 "Hg10 mi
8:50 PM68 °FSunny.5 mph69%30.15 "Hg10 mi
8:20 PM68 °FPassing clouds.5 mph69%30.15 "HgN/A
7:50 PM70 °FSunny.6 mph64%30.15 "Hg10 mi
7:20 PM73 °FPassing clouds.8 mph57%30.15 "HgN/A
6:50 PM73 °FPassing clouds.8 mph57%30.15 "HgN/A
6:20 PM75 °FPassing clouds.10 mph50%30.15 "HgN/A
5:50 PM75 °FPassing clouds.9 mph54%30.15 "HgN/A
5:20 PM75 °FPassing clouds.9 mph54%30.18 "HgN/A
4:50 PM75 °FPassing clouds.12 mph54%30.18 "HgN/A
4:20 PM75 °FPassing clouds.12 mph54%30.18 "HgN/A
3:50 PM75 °FPassing clouds.10 mph54%30.21 "HgN/A
3:20 PM75 °FPassing clouds.12 mph54%30.21 "HgN/A
2:50 PM75 °FPassing clouds.13 mph54%30.21 "HgN/A
2:20 PM75 °FPassing clouds.13 mph54%30.21 "HgN/A
1:50 PM75 °FPassing clouds.12 mph54%30.24 "HgN/A
1:20 PM73 °FPassing clouds.13 mph53%30.24 "Hg5 mi
12:50 PM73 °FPassing clouds.14 mph53%30.24 "Hg5 mi
12:20 PM72 °FSunny.14 mph53%30.24 "Hg10 mi
11:50 AM72 °FPassing clouds.12 mph57%30.24 "HgN/A
11:20 AM70 °FSunny.12 mph57%30.27 "Hg10 mi
10:50 AM68 °FSunny.10 mph64%30.27 "Hg10 mi
10:20 AM66 °FPassing clouds.8 mph73%30.27 "HgN/A
9:50 AM66 °FPassing clouds.8 mph78%30.27 "HgN/A
9:20 AM64 °FSunny.7 mph83%30.27 "Hg10 mi
Weather by CustomWeather, © 2016

See weather overviewHow to use our weather pages